Stations météo

réclame
Mon MeteoGroup
Camborne, Grande-Bretagne (3808): Température de l'air & dewpoint: 18.11.2020 23:00:00 - 24.11.2020 23:00:00 (GMT)Camborne, Grande-Bretagne (3808): Température de l'air -20cm & Température de l'air -100cm: 18.11.2020 23:00:00 - 24.11.2020 23:00:00 (GMT)Camborne, Grande-Bretagne (3808): Vitesse du vent & gusts: 18.11.2020 23:00:00 - 24.11.2020 23:00:00 (GMT)Camborne, Grande-Bretagne (3808): Direction du vent: 18.11.2020 23:00:00 - 24.11.2020 23:00:00 (GMT)Camborne, Grande-Bretagne (3808): reduced air pressure: 18.11.2020 23:00:00 - 24.11.2020 23:00:00 (GMT)Camborne, Grande-Bretagne (3808): visibility: 18.11.2020 23:00:00 - 24.11.2020 23:00:00 (GMT)Camborne, Grande-Bretagne (3808): Ensoleillement: 18.11.2020 23:00:00 - 24.11.2020 23:00:00 (GMT)Camborne, Grande-Bretagne (3808): Quantités de précipitations: 18.11.2020 23:00:00 - 24.11.2020 23:00:00 (GMT)
Date & Time tt [°C] td [°C] tt -20cm [°C] tt -100cm [°C] ff [km/h] ff [knt] fx [km/h] fx [knt] dd ppp [hPa] vv [km] sd [min] rr [mm]
24.11.2020 23:00:00 9,6 9,1 - - 16 9 - - NW 1008,1 2,5 0 1,8
24.11.2020 22:00:00 12,1 11,6 - - 22 12 - - SSW 1007,3 8 0 0,2
24.11.2020 21:00:00 12,1 11,6 - - 24 13 - - SSW 1007,5 5 0 0,2
24.11.2020 20:00:00 11,9 11,4 - - 21 11 - - S 1007,7 7 0 0,6
24.11.2020 19:00:00 12,1 11,3 - - 28 15 48 26 S 1007,9 5 0 0,0
24.11.2020 18:00:00 11,9 11,0 - - 24 13 46 25 S 1008,2 8 0 0,0
24.11.2020 17:00:00 12,1 10,6 - - 24 13 - - S 1008,4 10 0 0,0
24.11.2020 16:00:00 12,1 10,3 - - 24 13 46 25 S 1008,5 12 0 0,0
24.11.2020 15:00:00 12,5 10,5 - - 29 16 48 26 S 1009,0 12 0 0,0
24.11.2020 14:00:00 12,6 11,0 - - 31 17 52 28 S 1009,6 12 6 0,0
24.11.2020 13:00:00 12,5 11,1 - - 35 19 54 29 S 1010,5 15 0 0,0
24.11.2020 12:00:00 12,3 10,8 - - 31 17 54 29 S 1011,7 15 0 0,0
24.11.2020 11:00:00 12,3 10,4 - - 34 18 54 29 S 1013,0 15 0 0,0
24.11.2020 10:00:00 12,2 10,1 - - 29 16 - - S 1013,5 20 0 0,0
24.11.2020 09:00:00 11,7 10,2 11,4 11,9 28 15 - - S 1014,1 20 0 0,0
24.11.2020 08:00:00 11,5 10,2 - - 28 15 - - S 1014,5 20 0 0,0
24.11.2020 07:00:00 11,2 10,0 - - 28 15 - - S 1015,3 20 0 0,0
24.11.2020 06:00:00 10,9 9,6 - - 28 15 - - S 1015,9 25 0 0,0
24.11.2020 05:00:00 10,9 9,5 - - 29 16 46 25 S 1016,4 30 0 0,0
24.11.2020 04:00:00 11,1 8,8 - - 26 14 - - SSW 1017,6 30 0 0,0
24.11.2020 03:00:00 11,1 9,0 - - 26 14 - - S 1018,7 30 0 0,0
24.11.2020 02:00:00 11,0 9,0 - - 26 14 - - S 1019,6 30 0 0,0
24.11.2020 01:00:00 11,1 9,2 - - 21 11 - - S 1020,6 25 0 0,0
24.11.2020 00:00:00 10,8 10,1 - - 16 9 - - S 1021,7 7 - 0,0
23.11.2020 23:00:00 10,7 9,9 - - 21 11 - - SSW 1022,5 12 0 0,2
23.11.2020 22:00:00 10,7 10,2 - - 21 11 - - SSW 1023,0 2,5 0 0,0
23.11.2020 21:00:00 10,7 9,6 - - 21 11 - - SSW 1023,4 30 0 0,0
23.11.2020 20:00:00 10,7 9,7 - - 22 12 - - SSW 1023,6 10 0 0,2
23.11.2020 19:00:00 10,7 10,0 - - 18 10 - - SSW 1024,1 15 0 0,0
23.11.2020 18:00:00 10,4 10,0 - - 24 13 - - SSW 1024,4 5 0 0,2
23.11.2020 17:00:00 10,8 10,4 - - 24 13 - - SSW 1024,5 3,0 0 0,2
23.11.2020 16:00:00 10,9 10,5 - - 21 11 - - SSW 1024,9 4,5 0 0,0
23.11.2020 15:00:00 10,9 10,3 - - 24 13 - - SSW 1025,1 5 6 0,0
23.11.2020 14:00:00 11,6 9,9 - - 18 10 - - SSW 1025,6 40 18 0,0
23.11.2020 13:00:00 11,6 10,1 - - 21 11 - - S 1026,0 40 6 0,0
23.11.2020 12:00:00 11,0 9,5 - - 16 9 - - SSW 1026,7 40 6 0,0
23.11.2020 11:00:00 10,9 9,5 - - 15 8 - - SSW 1027,4 40 30 0,0
23.11.2020 10:00:00 10,2 9,1 - - 13 7 - - S 1027,5 35 18 0,0
23.11.2020 09:00:00 8,9 8,2 11,2 12,0 11 6 - - S 1027,6 25 0 0,0
23.11.2020 08:00:00 8,8 8,0 - - 13 7 - - S 1027,4 18 0 0,0
23.11.2020 07:00:00 8,8 7,7 - - 13 7 - - S 1027,4 30 0 0,0
23.11.2020 06:00:00 8,2 7,5 - - 9 5 - - SSE 1027,5 30 0 0,0
23.11.2020 05:00:00 8,2 7,5 - - 8 4 - - SSE 1027,7 35 0 0,0
23.11.2020 04:00:00 8,0 7,6 - - 8 4 - - SSE 1028,0 25 0 0,0
23.11.2020 03:00:00 7,1 6,8 - - 8 4 - - SSE 1028,5 25 0 0,0
23.11.2020 02:00:00 6,9 6,8 - - 5 3 - - S 1028,7 15 0 0,0
23.11.2020 01:00:00 6,4 6,4 - - 5 3 - - SSE 1028,7 7 0 0,0
23.11.2020 00:00:00 6,8 6,7 - - 5 3 - - SSE 1028,9 7 - 0,0
22.11.2020 23:00:00 6,8 - - - 2 1 - - SSE 1029,0 2,3 0 0,0
22.11.2020 22:00:00 6,6 6,3 - - 0 0 - - N 1028,8 10 0 0,0
22.11.2020 21:00:00 7,3 7,2 - - 4 2 - - SW 1028,7 10 0 0,0
22.11.2020 20:00:00 7,6 7,5 - - 5 3 - - S 1028,7 3,2 0 0,0
22.11.2020 19:00:00 7,1 7,1 - - 0 0 - - N 1028,7 0,3 0 0,0
22.11.2020 18:00:00 8,1 8,0 - - 5 3 - - NE 1028,1 15 0 0,0
22.11.2020 17:00:00 8,5 8,3 - - 5 3 - - NE 1027,6 15 0 0,0
22.11.2020 16:00:00 9,4 9,0 - - 8 4 - - ENE 1027,4 20 0 0,0
22.11.2020 15:00:00 9,7 9,6 - - 9 5 - - NNE 1027,3 3,5 0 0,0
22.11.2020 14:00:00 9,8 9,6 - - 9 5 - - N 1027,4 2,0 0 0,0
22.11.2020 13:00:00 10,2 9,9 - - 8 4 - - N 1027,6 2,5 0 0,4
22.11.2020 12:00:00 10,0 9,6 - - 5 3 - - NE 1028,1 3,0 0 0,2
22.11.2020 11:00:00 9,8 9,6 - - 2 1 - - NNW 1028,4 2,0 0 0,2
22.11.2020 10:00:00 9,8 9,6 - - 4 2 - - SW 1028,1 5 0 0,0
22.11.2020 09:00:00 9,6 9,5 11,5 12,0 4 2 - - SSW 1027,8 25 0 0,0
22.11.2020 08:00:00 9,5 9,4 - - 5 3 - - S 1027,6 20 0 0,0
22.11.2020 07:00:00 9,5 9,5 - - 5 3 - - S 1027,5 12 0 0,2
22.11.2020 06:00:00 9,5 9,5 - - 2 1 - - N 1027,3 12 0 0,0
22.11.2020 05:00:00 9,9 9,8 - - 4 2 - - N 1027,3 3,0 0 0,2
22.11.2020 04:00:00 9,9 9,7 - - 4 2 - - NNW 1027,1 8 0 0,0
22.11.2020 03:00:00 10,3 10,2 - - 4 2 - - W 1027,1 8 0 0,4
22.11.2020 02:00:00 10,5 10,4 - - 9 5 - - NW 1027,0 4,0 0 0,8
22.11.2020 01:00:00 10,9 10,8 - - 11 6 - - SW 1027,0 3,0 0 0,4
22.11.2020 00:00:00 10,8 10,7 - - 13 7 - - SW 1027,0 5 - 0,0
21.11.2020 23:00:00 10,8 10,4 - - 13 7 - - SW 1027,1 6 0 0,0
21.11.2020 22:00:00 10,9 10,1 - - 15 8 - - SW 1027,4 20 0 0,0
21.11.2020 21:00:00 10,7 9,8 - - 16 9 - - SW 1027,4 25 0 0,0
21.11.2020 20:00:00 10,7 9,9 - - 16 9 - - SW 1027,8 27 0 0,0
21.11.2020 19:00:00 10,4 9,8 - - 16 9 - - SW 1027,7 20 0 0,0
21.11.2020 18:00:00 10,5 9,9 - - 21 11 - - SW 1027,5 20 0 0,0
21.11.2020 17:00:00 10,5 10,0 - - 22 12 - - SW 1027,6 12 0 0,2
21.11.2020 16:00:00 10,6 10,2 - - 21 11 - - SW 1027,4 14 0 0,2
21.11.2020 15:00:00 10,6 10,0 - - 21 11 - - SW 1027,4 3,0 0 0,0
21.11.2020 14:00:00 11,0 9,8 - - 21 11 - - SW 1027,7 6 0 0,0
21.11.2020 13:00:00 10,9 9,6 - - 21 11 - - SW 1028,2 6 0 0,0
21.11.2020 12:00:00 10,9 9,7 - - 18 10 - - SW 1028,7 7 0 0,0
21.11.2020 11:00:00 10,7 9,4 - - 24 13 - - SW 1029,3 8 0 0,0
21.11.2020 10:00:00 10,8 8,6 - - 21 11 - - SW 1029,1 7 0 0,0
21.11.2020 09:00:00 11,0 7,6 11,4 12,0 21 11 - - WSW 1028,8 20 0 0,0
21.11.2020 08:00:00 10,9 7,6 - - 18 10 - - SW 1028,7 26 0 0,0
21.11.2020 07:00:00 10,9 7,3 - - 21 11 - - WSW 1028,7 28 0 0,0
21.11.2020 06:00:00 10,8 7,2 - - 16 9 - - WSW 1028,9 25 0 0,0
21.11.2020 05:00:00 10,9 6,8 - - 21 11 - - WSW 1029,0 30 0 0,0
21.11.2020 04:00:00 10,9 7,1 - - 21 11 - - SW 1029,4 30 0 0,0
21.11.2020 03:00:00 10,7 8,3 - - 15 8 - - WSW 1029,7 25 0 0,0
21.11.2020 02:00:00 10,9 7,9 - - 21 11 - - SW 1029,7 25 0 0,0
21.11.2020 01:00:00 10,9 7,1 - - 22 12 - - SW 1029,9 30 0 0,0
21.11.2020 00:00:00 10,6 8,7 - - 15 8 - - SW 1030,5 22 - 0,0
20.11.2020 23:00:00 10,8 7,5 - - 21 11 - - SW 1030,6 30 0 0,0
20.11.2020 22:00:00 9,9 8,4 - - 15 8 - - SW 1031,3 25 0 0,0
20.11.2020 21:00:00 9,7 8,6 - - 15 8 - - SW 1031,9 35 0 0,0
20.11.2020 20:00:00 9,9 8,7 - - 22 12 - - SW 1032,0 4,5 0 0,0
20.11.2020 19:00:00 10,5 6,9 - - 15 8 - - SW 1031,9 35 0 0,0
20.11.2020 18:00:00 10,6 6,9 - - 21 11 - - WSW 1032,1 30 0 0,0
20.11.2020 17:00:00 10,6 8,2 - - 18 10 - - WSW 1032,1 20 0 0,0
20.11.2020 16:00:00 10,9 9,2 - - 15 8 - - SW 1032,2 21 0 0,0
20.11.2020 15:00:00 11,5 9,4 - - 21 11 - - WSW 1032,4 15 0 0,0
20.11.2020 14:00:00 11,2 9,7 - - 22 12 - - WSW 1033,0 20 0 0,0
20.11.2020 13:00:00 10,5 9,9 - - 18 10 - - SW 1033,7 7 0 0,2
20.11.2020 12:00:00 10,1 8,9 - - 21 11 - - SW 1034,3 3,0 0 0,0
20.11.2020 11:00:00 9,3 8,6 - - 18 10 - - SW 1034,5 30 0 0,0
20.11.2020 10:00:00 9,3 8,8 - - 21 11 - - SW 1034,3 8 0 0,0
20.11.2020 09:00:00 9,1 8,5 11,2 12,2 18 10 - - SW 1034,8 9 0 0,4
20.11.2020 08:00:00 8,7 8,2 - - 18 10 - - SW 1034,9 15 0 0,2
20.11.2020 07:00:00 8,7 8,4 - - 15 8 - - SW 1035,4 15 0 2,0
20.11.2020 06:00:00 9,0 8,0 - - 9 5 - - SW 1035,5 8 0 0,8
20.11.2020 05:00:00 9,0 7,9 - - 9 5 - - SW 1035,5 24 0 0,0
20.11.2020 04:00:00 8,4 7,5 - - 8 4 - - SSW 1035,8 25 0 0,0
20.11.2020 03:00:00 8,2 7,5 - - 9 5 - - S 1036,2 29 0 0,2
20.11.2020 02:00:00 8,6 7,5 - - 15 8 - - SW 1036,8 5 0 0,0
20.11.2020 01:00:00 8,2 5,5 - - 9 5 - - SSW 1037,4 15 0 0,0
20.11.2020 00:00:00 8,1 5,0 - - 8 4 - - S 1037,9 25 - 0,0
19.11.2020 23:00:00 7,7 4,2 - - 9 5 - - SSW 1037,9 25 0 0,0
19.11.2020 22:00:00 7,1 3,7 - - 5 3 - - SW 1038,1 18 0 0,0
19.11.2020 21:00:00 7,6 3,7 - - 8 4 - - SW 1037,5 18 0 0,0
19.11.2020 20:00:00 7,9 3,2 - - 8 4 - - W 1037,3 25 0 0,0
19.11.2020 19:00:00 8,7 2,8 - - 13 7 - - WNW 1037,1 25 0 0,0
19.11.2020 18:00:00 8,5 2,7 - - 11 6 - - NW 1036,9 25 0 0,0
19.11.2020 17:00:00 8,8 1,6 - - 18 10 - - NW 1037,1 25 0 0,0
19.11.2020 16:00:00 8,8 1,4 - - 18 10 - - NW 1036,8 30 6 0,0
19.11.2020 15:00:00 9,3 2,3 - - 21 11 - - NNW 1036,0 25 42 0,0
19.11.2020 14:00:00 9,4 1,3 - - 21 11 - - NNW 1035,6 25 48 0,0
19.11.2020 13:00:00 9,5 1,8 - - 24 13 46 25 NNW 1034,4 25 30 0,0
19.11.2020 12:00:00 9,6 1,3 - - 28 15 48 26 NW 1035,1 25 18 0,0
19.11.2020 11:00:00 9,5 1,4 - - 31 17 46 25 NW 1034,8 20 18 0,0
19.11.2020 10:00:00 9,7 2,2 - - 31 17 50 27 NW 1033,2 20 30 0,0
19.11.2020 09:00:00 9,3 3,2 11,7 12,2 29 16 55 30 NW 1032,3 20 0 0,0
19.11.2020 08:00:00 9,2 2,6 - - 31 17 57 31 NW 1031,0 15 0 0,0
19.11.2020 07:00:00 9,4 3,3 - - 31 17 57 31 NW 1030,1 20 0 0,0
19.11.2020 06:00:00 9,4 2,9 - - 34 18 59 32 NW 1029,0 25 0 0,0
19.11.2020 05:00:00 10,0 2,6 - - 35 19 55 30 NW 1028,2 25 0 0,0
19.11.2020 04:00:00 10,4 2,9 - - 35 19 55 30 NW 1027,3 20 0 0,0
19.11.2020 03:00:00 10,3 4,3 - - 34 18 54 29 WNW 1026,2 15 0 0,0
19.11.2020 02:00:00 10,1 6,2 - - 37 20 57 31 W 1025,5 15 0 0,0
19.11.2020 01:00:00 10,4 5,7 - - 35 19 57 31 W 1024,7 15 0 0,0
19.11.2020 00:00:00 9,9 4,7 - - 35 19 55 30 W 1024,4 15 - 0,0
18.11.2020 23:00:00 10,2 4,0 - - 42 23 67 36 W 1023,5 15 0 0,0

tt = Température de l'air
td = dewpoint
tt -20cm = Température de l'air -20cm
tt -100cm = Température de l'air -100cm
ff = Vitesse du vent
fx = gusts
dd = Direction du vent
ppp = reduced air pressure
vv = visibility
sd = Ensoleillement
rr = Quantités de précipitations

stations d'obs. à proximité